Retour au catalogue

COSMOS 2251 DEB

ActifLEO
NORAD 35884·DEBRIS·🇷🇺 Russia

Lancé Jun 16, 1993 depuis Plesetsk Cosmodrome

Loading…

Prochains Passages (prochaines 24 heures)

TLE

PériméSource: Space-Track

Époque: Sep 3, 2026, 15:45 UTC

1 35884U 93036ATX 26246.65625671  .00002000  00000-0  77366-3 0  9991
2 35884  73.9881 215.5593 0113350 299.7916  59.1997 14.27298451261352

Suivez COSMOS 2251 DEB en temps réel avec AllMySat

Download on the App Store